Terug naar catalogus

TELSTAR 3D R/B

PAM-D

ActiefGTO
NORAD 15837·ROCKET BODY·🇺🇸 United States

Gelanceerd Jun 17, 1985 vanaf Cape Canaveral Space Force Station

Loading…

TLE

VerouderendSource: Space-Track

Epoch: Sep 14, 2026, 10:03 UTC

1 15837U 85048H   26257.41908698 -.00000021  00000-0  46250-3 0  9990
2 15837  25.5991 272.0215 7197601 109.1353 336.2104  2.29320759286205

Volg TELSTAR 3D R/B in realtime met AllMySat

Download on the App Store